ProjectID,Date,Electric Generation,Electric Utility Import,Facility Electric Load
,YYYY-MM-DD,kW,kW,kW
529,2017-11-01,0.0,,0.0
529,2017-11-02,0.0,,0.0
529,2017-11-03,0.0,,0.0
529,2017-11-04,0.0,,0.0
529,2017-11-05,0.0,,0.0
529,2017-11-06,0.0,,0.0
529,2017-11-07,0.0,,0.0
529,2017-11-08,0.0,,0.0
529,2017-11-09,0.0,,0.0
529,2017-11-10,0.0,,0.0
529,2017-11-11,0.0,,0.0
529,2017-11-12,0.0,,0.0
529,2017-11-13,0.0,,0.0
529,2017-11-14,0.0,,0.0
529,2017-11-15,0.0,,0.0
529,2017-11-16,0.0,,0.0
529,2017-11-17,0.0,,0.0
529,2017-11-18,0.0,,0.0
529,2017-11-19,0.0,,0.0
529,2017-11-20,0.0,,0.0
529,2017-11-21,14.084583333333333,,14.084583333333333
529,2017-11-22,8.865833333333335,,8.865833333333335
529,2017-11-23,9.114583333333334,,9.114583333333334
529,2017-11-24,98.51541666666664,,98.51541666666664
529,2017-11-25,4.960833333333333,,4.960833333333333
529,2017-11-26,18.23166666666667,,18.23166666666667
529,2017-11-27,33.87791666666667,,33.87791666666667
529,2017-11-28,94.94874999999998,,94.94874999999998
529,2017-11-29,40.76291666666666,,40.76291666666666
529,2017-11-30,74.42583333333333,,74.42583333333333
529,2017-12-01,26.234583333333333,,26.234583333333333
529,2017-12-02,37.20166666666667,,37.20166666666667
529,2017-12-03,65.07958333333333,,65.07958333333333
529,2017-12-04,64.6775,,64.6775
529,2017-12-05,4.660833333333334,,4.660833333333334
529,2017-12-06,26.22375,,26.22375
529,2017-12-07,4.91375,,4.91375
529,2017-12-08,0.02583333333333333,,0.02583333333333333
529,2017-12-09,32.24041666666667,,32.24041666666667
529,2017-12-10,5.805833333333333,,5.805833333333333
529,2017-12-11,2.188333333333333,,2.188333333333333
529,2017-12-12,1.3475,,1.3475
529,2017-12-13,0.5145833333333333,,0.5145833333333333
529,2017-12-14,3.0033333333333334,,3.0033333333333334
529,2017-12-15,1.9695833333333335,,1.9695833333333335
529,2017-12-16,7.302083333333332,,7.302083333333332
529,2017-12-17,30.61666666666667,,30.61666666666667
529,2017-12-18,3.171666666666667,,3.171666666666667
529,2017-12-19,3.204166666666667,,3.204166666666667
529,2017-12-20,17.824583333333333,,17.824583333333333
529,2017-12-21,100.59583333333335,,100.59583333333335
529,2017-12-22,0.08166666666666667,,0.08166666666666667
529,2017-12-23,0.016249999999999997,,0.016249999999999997
529,2017-12-24,0.2870833333333333,,0.2870833333333333
529,2017-12-25,0.21291666666666664,,0.21291666666666664
529,2017-12-26,0.60125,,0.60125
529,2017-12-27,12.970833333333333,,12.970833333333333
529,2017-12-28,22.105833333333333,,22.105833333333333
529,2017-12-29,18.58833333333333,,18.58833333333333
529,2017-12-30,4.912083333333333,,4.912083333333333
529,2017-12-31,7.1762500000000005,,7.1762500000000005
529,2018-01-01,6.939583333333334,,6.939583333333334
529,2018-01-02,0.62625,,0.62625
529,2018-01-03,5.197500000000001,,5.197500000000001
529,2018-01-04,1.6745833333333333,,1.6745833333333333
529,2018-01-05,2.05,,2.05
529,2018-01-06,9.890833333333331,,9.890833333333331
529,2018-01-07,6.187916666666666,,6.187916666666666
529,2018-01-08,1.8287500000000003,,1.8287500000000003
529,2018-01-09,35.64875,,35.64875
529,2018-01-10,101.32374999999998,,101.32374999999998
529,2018-01-11,19.109166666666663,,19.109166666666663
529,2018-01-12,14.250416666666666,,14.250416666666666
529,2018-01-13,0.3854166666666667,,0.3854166666666667
529,2018-01-14,1.8225,,1.8225
529,2018-01-15,1.2425,,1.2425
529,2018-01-16,0.20958333333333332,,0.20958333333333332
529,2018-01-17,0.1275,,0.1275
529,2018-01-18,0.0,,0.0
529,2018-01-19,0.028333333333333335,,0.028333333333333335
529,2018-01-20,78.80250000000001,,78.80250000000001
529,2018-01-21,73.80999999999999,,73.80999999999999
529,2018-01-22,12.057916666666666,,12.057916666666666
529,2018-01-23,13.842916666666667,,13.842916666666667
529,2018-01-24,70.81083333333335,,70.81083333333335
529,2018-01-25,125.66208333333333,,125.66208333333333
529,2018-01-26,119.03166666666668,,119.03166666666668
529,2018-01-27,18.25125,,18.25125
529,2018-01-28,96.95083333333332,,96.95083333333332
529,2018-01-29,71.69666666666667,,71.69666666666667
529,2018-01-30,2.552083333333333,,2.552083333333333
529,2018-01-31,3.2466666666666666,,3.2466666666666666
529,2018-02-01,26.52208333333333,,26.52208333333333
529,2018-02-02,96.02541666666666,,96.02541666666666
529,2018-02-03,1.4070833333333335,,1.4070833333333335
529,2018-02-04,14.577083333333333,,14.577083333333333
529,2018-02-05,5.9775,,5.9775
529,2018-02-06,0.22166666666666668,,0.22166666666666668
529,2018-02-07,0.0,,0.0
529,2018-02-08,1.0724999999999998,,1.0724999999999998
529,2018-02-09,0.25333333333333335,,0.25333333333333335
529,2018-02-10,0.8524999999999999,,0.8524999999999999
529,2018-02-11,1.5366666666666664,,1.5366666666666664
529,2018-02-12,118.46333333333331,,118.46333333333331
529,2018-02-13,139.09625000000003,,139.09625000000003
529,2018-02-14,75.98875,,75.98875
529,2018-02-15,23.988749999999996,,23.988749999999996
529,2018-02-16,11.955833333333333,,11.955833333333333
529,2018-02-17,85.16375,,85.16375
529,2018-02-18,52.90416666666666,,52.90416666666666
529,2018-02-19,57.98208333333333,,57.98208333333333
529,2018-02-20,8.742500000000001,,8.742500000000001
529,2018-02-21,17.4375,,17.4375
529,2018-02-22,27.714583333333337,,27.714583333333337
529,2018-02-23,15.509166666666667,,15.509166666666667
529,2018-02-24,55.47666666666667,,55.47666666666667
529,2018-02-25,47.74625,,47.74625
529,2018-02-26,117.52416666666669,,117.52416666666669
529,2018-02-27,147.66833333333332,,147.66833333333332
529,2018-02-28,102.36708333333333,,102.36708333333333
529,2018-03-01,85.64708333333333,,85.64708333333333
529,2018-03-02,1.1354166666666667,,1.1354166666666667
529,2018-03-03,14.775833333333331,,14.775833333333331
529,2018-03-04,107.01625,,107.01625
529,2018-03-05,59.47333333333333,,59.47333333333333
529,2018-03-06,96.92500000000001,,96.92500000000001
529,2018-03-07,21.395833333333332,,21.395833333333332
529,2018-03-08,5.414583333333334,,5.414583333333334
529,2018-03-09,31.35291666666667,,31.35291666666667
529,2018-03-10,68.65541666666667,,68.65541666666667
529,2018-03-11,68.75416666666666,,68.75416666666666
529,2018-03-12,71.19,,71.19
529,2018-03-13,30.247500000000002,,30.247500000000002
529,2018-03-14,1.4495833333333332,,1.4495833333333332
529,2018-03-15,0.0,,0.0
529,2018-03-16,0.0,,0.0
529,2018-03-17,0.0,,0.0
529,2018-03-18,0.0,,0.0
529,2018-03-19,30.9425,,30.9425
529,2018-03-20,183.4508333333333,,183.4508333333333
529,2018-03-21,147.70583333333332,,147.70583333333332
529,2018-03-22,184.52583333333334,,184.52583333333334
529,2018-03-23,164.3216666666667,,164.3216666666667
529,2018-03-24,165.01500000000001,,165.01500000000001
529,2018-03-25,183.3025,,183.3025
529,2018-03-26,191.20541666666668,,191.20541666666668
529,2018-03-27,60.06333333333333,,60.06333333333333
529,2018-03-28,27.475000000000005,,27.475000000000005
529,2018-03-29,24.59291666666667,,24.59291666666667
529,2018-03-30,49.5925,,49.5925
529,2018-03-31,160.85333333333332,,160.85333333333332
529,2018-04-01,139.78125000000003,,139.78125000000003
529,2018-04-02,179.62541666666667,,179.62541666666667
529,2018-04-03,32.6025,,32.6025
529,2018-04-04,58.69458333333333,,58.69458333333333
529,2018-04-05,189.09541666666664,,189.09541666666664
529,2018-04-06,37.448750000000004,,37.448750000000004
529,2018-04-07,150.60541666666666,,150.60541666666666
529,2018-04-08,121.2,,121.2
529,2018-04-09,152.72291666666666,,152.72291666666666
529,2018-04-10,130.18499999999997,,130.18499999999997
529,2018-04-11,130.54166666666669,,130.54166666666669
529,2018-04-12,46.32708333333332,,46.32708333333332
529,2018-04-13,41.92333333333334,,41.92333333333334
529,2018-04-14,18.402083333333334,,18.402083333333334
529,2018-04-15,11.768749999999999,,11.768749999999999
529,2018-04-16,22.05875,,22.05875
529,2018-04-17,59.199166666666656,,59.199166666666656
529,2018-04-18,42.502500000000005,,42.502500000000005
529,2018-04-19,45.477916666666665,,45.477916666666665
529,2018-04-20,107.87541666666668,,107.87541666666668
529,2018-04-21,195.48625,,195.48625
529,2018-04-22,193.46666666666667,,193.46666666666667
529,2018-04-23,191.50208333333333,,191.50208333333333
529,2018-04-24,145.10999999999999,,145.10999999999999
529,2018-04-25,35.55875,,35.55875
529,2018-04-26,42.107499999999995,,42.107499999999995
529,2018-04-27,98.75333333333334,,98.75333333333334
529,2018-04-28,63.752916666666685,,63.752916666666685
529,2018-04-29,29.02333333333333,,29.02333333333333
529,2018-04-30,81.59291666666668,,81.59291666666668
529,2018-05-01,122.56958333333334,,122.56958333333334
529,2018-05-02,130.36083333333332,,130.36083333333332
529,2018-05-03,45.279999999999994,,45.279999999999994
529,2018-05-04,57.074166666666656,,57.074166666666656
529,2018-05-05,181.31500000000003,,181.31500000000003
529,2018-05-06,124.07375,,124.07375
529,2018-05-07,192.80749999999998,,192.80749999999998
529,2018-05-08,187.4725,,187.4725
529,2018-05-09,141.45166666666668,,141.45166666666668
529,2018-05-10,84.94625,,84.94625
529,2018-05-11,179.10666666666665,,179.10666666666665
529,2018-05-12,153.44041666666666,,153.44041666666666
529,2018-05-13,184.45208333333335,,184.45208333333335
529,2018-05-14,167.0654166666667,,167.0654166666667
529,2018-05-15,60.395,,60.395
529,2018-05-16,181.01,,181.01
529,2018-05-17,155.7829166666667,,155.7829166666667
529,2018-05-18,196.415,,196.415
529,2018-05-19,51.778333333333336,,51.778333333333336
529,2018-05-20,83.54333333333334,,83.54333333333334
529,2018-05-21,188.35583333333332,,188.35583333333332
529,2018-05-22,24.69458333333333,,24.69458333333333
529,2018-05-23,169.4125,,169.4125
529,2018-05-24,183.56791666666663,,183.56791666666663
529,2018-05-25,132.40458333333333,,132.40458333333333
529,2018-05-26,161.59500000000006,,161.59500000000006
529,2018-05-27,140.25708333333333,,140.25708333333333
529,2018-05-28,149.55708333333334,,149.55708333333334
529,2018-05-29,178.6,,178.6
529,2018-05-30,155.86333333333334,,155.86333333333334
529,2018-05-31,91.165,,91.165
529,2018-06-01,151.2458333333333,,151.2458333333333
529,2018-06-02,152.46708333333333,,152.46708333333333
529,2018-06-03,43.59416666666666,,43.59416666666666
529,2018-06-04,71.57208333333334,,71.57208333333334
529,2018-06-05,81.35583333333331,,81.35583333333331
529,2018-06-06,119.15041666666667,,119.15041666666667
529,2018-06-07,139.43208333333334,,139.43208333333334
529,2018-06-08,183.99541666666664,,183.99541666666664
529,2018-06-09,158.11833333333334,,158.11833333333334
529,2018-06-10,188.40958333333336,,188.40958333333336
529,2018-06-11,187.0633333333333,,187.0633333333333
529,2018-06-12,179.6858333333333,,179.6858333333333
529,2018-06-13,47.964166666666664,,47.964166666666664
529,2018-06-14,21.78708333333333,,21.78708333333333
529,2018-06-15,177.72875,,177.72875
529,2018-06-16,158.31083333333333,,158.31083333333333
529,2018-06-17,148.44291666666666,,148.44291666666666
529,2018-06-18,93.78208333333335,,93.78208333333335
529,2018-06-19,176.35083333333333,,176.35083333333333
529,2018-06-20,154.60083333333333,,154.60083333333333
529,2018-06-21,181.76041666666666,,181.76041666666666
529,2018-06-22,145.17499999999998,,145.17499999999998
529,2018-06-23,46.442083333333336,,46.442083333333336
529,2018-06-24,53.286249999999995,,53.286249999999995
529,2018-06-25,179.47333333333333,,179.47333333333333
529,2018-06-26,165.46333333333334,,165.46333333333334
529,2018-06-27,43.76999999999999,,43.76999999999999
529,2018-06-28,61.70833333333334,,61.70833333333334
529,2018-06-29,169.28000000000003,,169.28000000000003
529,2018-06-30,143.36041666666665,,143.36041666666665
529,2018-07-01,159.97499999999997,,159.97499999999997
529,2018-07-02,122.60625,,122.60625
529,2018-07-03,165.4475,,165.4475
529,2018-07-04,158.49416666666667,,158.49416666666667
529,2018-07-05,146.16291666666666,,146.16291666666666
529,2018-07-06,155.91625000000002,,155.91625000000002
529,2018-07-07,169.85541666666666,,169.85541666666666
529,2018-07-08,169.53958333333333,,169.53958333333333
529,2018-07-09,171.07708333333335,,171.07708333333335
529,2018-07-10,125.35874999999999,,125.35874999999999
529,2018-07-11,173.92249999999999,,173.92249999999999
529,2018-07-12,163.50833333333333,,163.50833333333333
529,2018-07-13,149.64166666666668,,149.64166666666668
529,2018-07-14,92.92250000000001,,92.92250000000001
529,2018-07-15,154.20499999999998,,154.20499999999998
529,2018-07-16,144.31625,,144.31625
529,2018-07-17,144.76458333333332,,144.76458333333332
529,2018-07-18,176.79999999999998,,176.79999999999998
529,2018-07-19,169.41875,,169.41875
529,2018-07-20,165.29083333333332,,165.29083333333332
529,2018-07-21,158.20916666666665,,158.20916666666665
529,2018-07-22,128.89791666666665,,128.89791666666665
529,2018-07-23,106.41624999999999,,106.41624999999999
529,2018-07-24,48.48666666666666,,48.48666666666666
529,2018-07-25,0.0,,0.0
529,2018-07-26,165.5925,,165.5925
529,2018-07-27,135.33624999999998,,135.33624999999998
529,2018-07-28,155.75958333333335,,155.75958333333335
529,2018-07-29,165.94208333333333,,165.94208333333333
529,2018-07-30,133.77125,,133.77125
529,2018-07-31,90.26375000000002,,90.26375000000002
529,2018-08-01,82.96541666666667,,82.96541666666667
529,2018-08-02,111.6633333333333,,111.6633333333333
529,2018-08-03,63.53333333333334,,63.53333333333334
529,2018-08-04,148.71874999999997,,148.71874999999997
529,2018-08-05,158.2804166666667,,158.2804166666667
529,2018-08-06,151.96541666666664,,151.96541666666664
529,2018-08-07,77.43083333333334,,77.43083333333334
529,2018-08-08,78.37166666666667,,78.37166666666667
529,2018-08-09,152.63958333333335,,152.63958333333335
529,2018-08-10,173.48000000000002,,173.48000000000002
529,2018-08-11,156.12291666666667,,156.12291666666667
529,2018-08-12,116.04,,116.04
529,2018-08-13,80.05125,,80.05125
529,2018-08-14,89.73291666666665,,89.73291666666665
529,2018-08-15,116.84541666666667,,116.84541666666667
529,2018-08-16,128.66166666666666,,128.66166666666666
529,2018-08-17,47.90166666666667,,47.90166666666667
529,2018-08-18,86.76375,,86.76375
529,2018-08-19,122.02749999999999,,122.02749999999999
529,2018-08-20,149.43875,,149.43875
529,2018-08-21,55.34583333333335,,55.34583333333335
529,2018-08-22,88.19125000000001,,88.19125000000001
529,2018-08-23,164.39874999999998,,164.39874999999998
529,2018-08-24,156.4875,,156.4875
529,2018-08-25,137.95041666666665,,137.95041666666665
529,2018-08-26,81.58166666666668,,81.58166666666668
529,2018-08-27,70.81124999999999,,70.81124999999999
529,2018-08-28,126.00333333333333,,126.00333333333333
529,2018-08-29,127.28458333333332,,127.28458333333332
529,2018-08-30,79.32916666666667,,79.32916666666667
529,2018-08-31,89.05041666666666,,89.05041666666666
529,2018-09-01,137.5704166666667,,137.5704166666667
529,2018-09-02,91.60208333333334,,91.60208333333334
529,2018-09-03,147.53666666666666,,147.53666666666666
529,2018-09-04,142.04624999999996,,142.04624999999996
529,2018-09-05,149.57125000000002,,149.57125000000002
529,2018-09-06,83.12625000000001,,83.12625000000001
529,2018-09-07,158.90666666666667,,158.90666666666667
529,2018-09-08,109.21249999999999,,109.21249999999999
529,2018-09-09,78.49041666666666,,78.49041666666666
529,2018-09-10,24.034166666666668,,24.034166666666668
529,2018-09-11,45.374166666666675,,45.374166666666675
529,2018-09-12,54.21416666666667,,54.21416666666667
529,2018-09-13,165.605,,165.605
529,2018-09-14,110.12166666666666,,110.12166666666666
529,2018-09-15,160.4375,,160.4375
529,2018-09-16,150.9779166666667,,150.9779166666667
529,2018-09-17,134.96916666666667,,134.96916666666667
529,2018-09-18,90.40166666666666,,90.40166666666666
529,2018-09-19,67.88124999999998,,67.88124999999998
529,2018-09-20,74.44666666666667,,74.44666666666667
529,2018-09-21,137.015,,137.015
529,2018-09-22,137.32458333333332,,137.32458333333332
529,2018-09-23,152.55791666666667,,152.55791666666667
529,2018-09-24,157.27249999999998,,157.27249999999998
529,2018-09-25,45.08333333333334,,45.08333333333334
529,2018-09-26,23.584166666666665,,23.584166666666665
529,2018-09-27,108.42208333333333,,108.42208333333333
529,2018-09-28,158.16083333333333,,158.16083333333333
529,2018-09-29,131.5558333333333,,131.5558333333333
529,2018-09-30,40.643750000000004,,40.643750000000004
529,2018-10-01,22.382499999999997,,22.382499999999997
529,2018-10-02,10.488333333333332,,10.488333333333332
529,2018-10-03,38.893750000000004,,38.893750000000004
529,2018-10-04,61.07541666666666,,61.07541666666666
529,2018-10-05,121.36083333333333,,121.36083333333333
529,2018-10-06,39.59375,,39.59375
529,2018-10-07,24.22,,24.22
529,2018-10-08,64.94041666666666,,64.94041666666666
529,2018-10-09,66.88541666666667,,66.88541666666667
529,2018-10-10,105.15458333333333,,105.15458333333333
529,2018-10-11,30.176666666666673,,30.176666666666673
529,2018-10-12,83.55708333333334,,83.55708333333334
529,2018-10-13,48.36375,,48.36375
529,2018-10-14,139.64416666666668,,139.64416666666668
529,2018-10-15,0.0,,0.0
529,2018-10-16,57.22624999999999,,57.22624999999999
529,2018-10-17,38.94708333333333,,38.94708333333333
529,2018-10-18,143.1004166666667,,143.1004166666667
529,2018-10-19,123.57125000000002,,123.57125000000002
529,2018-10-20,89.98,,89.98
529,2018-10-21,69.02208333333333,,69.02208333333333
529,2018-10-22,34.35541666666666,,34.35541666666666
529,2018-10-23,55.644166666666656,,55.644166666666656
529,2018-10-24,23.123749999999998,,23.123749999999998
529,2018-10-25,42.21666666666666,,42.21666666666666
529,2018-10-26,95.3775,,95.3775
529,2018-10-27,13.579166666666667,,13.579166666666667
529,2018-10-28,20.677083333333336,,20.677083333333336
529,2018-10-29,13.18875,,13.18875
529,2018-10-30,111.65541666666667,,111.65541666666667
529,2018-10-31,10.209166666666667,,10.209166666666667
529,2018-11-01,16.074583333333337,,16.074583333333337
529,2018-11-02,15.361666666666665,,15.361666666666665
529,2018-11-03,14.086250000000001,,14.086250000000001
529,2018-11-04,120.71041666666666,,120.71041666666666
529,2018-11-05,18.969583333333333,,18.969583333333333
529,2018-11-06,23.09125,,23.09125
529,2018-11-07,16.75,,16.75
529,2018-11-08,13.508750000000001,,13.508750000000001
529,2018-11-09,7.557083333333334,,7.557083333333334
529,2018-11-10,23.43166666666666,,23.43166666666666
529,2018-11-11,125.61458333333331,,125.61458333333331
529,2018-11-12,60.739583333333336,,60.739583333333336
529,2018-11-13,6.878333333333334,,6.878333333333334
529,2018-11-14,88.34000000000002,,88.34000000000002
529,2018-11-15,29.870416666666667,,29.870416666666667
529,2018-11-16,22.247500000000002,,22.247500000000002
529,2018-11-17,18.404583333333335,,18.404583333333335
529,2018-11-18,17.310833333333335,,17.310833333333335
529,2018-11-19,78.64916666666666,,78.64916666666666
529,2018-11-20,10.899999999999999,,10.899999999999999
529,2018-11-21,54.727916666666665,,54.727916666666665
529,2018-11-22,130.94541666666666,,130.94541666666666
529,2018-11-23,93.26749999999998,,93.26749999999998
529,2018-11-24,69.84166666666667,,69.84166666666667
529,2018-11-25,6.927499999999999,,6.927499999999999
529,2018-11-26,5.597083333333333,,5.597083333333333
529,2018-11-27,11.47916666666667,,11.47916666666667
529,2018-11-28,3.2287500000000002,,3.2287500000000002
529,2018-11-29,14.05208333333333,,14.05208333333333
529,2018-11-30,9.667916666666667,,9.667916666666667
529,2018-12-01,71.11708333333333,,71.11708333333333
529,2018-12-02,8.522916666666665,,8.522916666666665
529,2018-12-03,3.98875,,3.98875
529,2018-12-04,43.04791666666667,,43.04791666666667
529,2018-12-05,22.927916666666665,,22.927916666666665
529,2018-12-06,0.08375,,0.08375
529,2018-12-07,0.0,,0.0
529,2018-12-08,0.0,,0.0
529,2018-12-09,0.0,,0.0
529,2018-12-10,0.08166666666666668,,0.08166666666666668
529,2018-12-11,0.0,,0.0
529,2018-12-12,0.0,,0.0
529,2018-12-13,5.145416666666667,,5.145416666666667
529,2018-12-14,9.4525,,9.4525
529,2018-12-15,39.7075,,39.7075
529,2018-12-16,25.456666666666667,,25.456666666666667
529,2018-12-17,7.52625,,7.52625
529,2018-12-18,82.29541666666667,,82.29541666666667
529,2018-12-19,90.87374999999999,,90.87374999999999
529,2018-12-20,39.9225,,39.9225
529,2018-12-21,10.5175,,10.5175
529,2018-12-22,2.6191666666666666,,2.6191666666666666
529,2018-12-23,11.188333333333334,,11.188333333333334
529,2018-12-24,1.5987500000000001,,1.5987500000000001
529,2018-12-25,46.04791666666667,,46.04791666666667
529,2018-12-26,17.431250000000002,,17.431250000000002
529,2018-12-27,34.60125,,34.60125
529,2018-12-28,8.620833333333332,,8.620833333333332
529,2018-12-29,3.9870833333333326,,3.9870833333333326
529,2018-12-30,2.710416666666667,,2.710416666666667
529,2018-12-31,27.838333333333335,,27.838333333333335
529,2019-01-01,15.568333333333333,,15.568333333333333
529,2019-01-02,95.11375,,95.11375
529,2019-01-03,1.4833333333333334,,1.4833333333333334
529,2019-01-04,95.07208333333334,,95.07208333333334
529,2019-01-05,83.21625,,83.21625
529,2019-01-06,43.93375,,43.93375
529,2019-01-07,26.760416666666668,,26.760416666666668
529,2019-01-08,8.734166666666665,,8.734166666666665
529,2019-01-09,0.0,,0.0
529,2019-01-10,0.1416666666666667,,0.1416666666666667
529,2019-01-11,1.8404166666666664,,1.8404166666666664
529,2019-01-12,2.7233333333333327,,2.7233333333333327
529,2019-01-13,3.545833333333333,,3.545833333333333
529,2019-01-14,2.8249999999999997,,2.8249999999999997
529,2019-01-15,0.08583333333333333,,0.08583333333333333
529,2019-01-16,44.671666666666674,,44.671666666666674
529,2019-01-17,114.11166666666668,,114.11166666666668
529,2019-01-18,13.729166666666666,,13.729166666666666
529,2019-01-19,17.090416666666663,,17.090416666666663
529,2019-01-20,2.2687500000000003,,2.2687500000000003
529,2019-01-21,5.3308333333333335,,5.3308333333333335
529,2019-01-22,6.144166666666667,,6.144166666666667
529,2019-01-23,14.023333333333335,,14.023333333333335
529,2019-01-24,2.83375,,2.83375
529,2019-01-25,4.6525,,4.6525
529,2019-01-26,0.0175,,0.0175
529,2019-01-27,0.0004166666666666667,,0.0004166666666666667
529,2019-01-28,0.5566666666666666,,0.5566666666666666
529,2019-01-29,0.0,,0.0
529,2019-01-30,0.14625000000000002,,0.14625000000000002
529,2019-01-31,0.0,,0.0
529,2019-02-01,0.49000000000000005,,0.49000000000000005
529,2019-02-02,0.0,,0.0
529,2019-02-03,12.416666666666666,,12.416666666666666
529,2019-02-04,72.35083333333333,,72.35083333333333
529,2019-02-05,52.354166666666664,,52.354166666666664
529,2019-02-06,20.175,,20.175
529,2019-02-07,22.809583333333332,,22.809583333333332
529,2019-02-08,15.314166666666667,,15.314166666666667
529,2019-02-09,159.03791666666666,,159.03791666666666
529,2019-02-10,80.38416666666667,,80.38416666666667
529,2019-02-11,86.66416666666667,,86.66416666666667
529,2019-02-12,9.314583333333333,,9.314583333333333
529,2019-02-13,3.63625,,3.63625
529,2019-02-14,4.107083333333333,,4.107083333333333
529,2019-02-15,28.38625,,28.38625
529,2019-02-16,127.31208333333332,,127.31208333333332
529,2019-02-17,136.63375,,136.63375
529,2019-02-18,8.684166666666666,,8.684166666666666
529,2019-02-19,62.806250000000006,,62.806250000000006
529,2019-02-20,36.49208333333333,,36.49208333333333
529,2019-02-21,11.910833333333334,,11.910833333333334
529,2019-02-22,50.432916666666664,,50.432916666666664
529,2019-02-23,117.45125,,117.45125
529,2019-02-24,37.40458333333334,,37.40458333333334
529,2019-02-25,48.475833333333334,,48.475833333333334
529,2019-02-26,104.35874999999999,,104.35874999999999
529,2019-02-27,20.089166666666667,,20.089166666666667
529,2019-02-28,47.27875,,47.27875
529,2019-03-01,116.64083333333336,,116.64083333333336
529,2019-03-02,23.513333333333332,,23.513333333333332
529,2019-03-03,55.07708333333334,,55.07708333333334
529,2019-03-04,64.70583333333333,,64.70583333333333